Regional Weather Roundup
Issued by NWS Cleveland, OH

Home | Current Version | Previous Version | Graphics & Text | Print | Product List | Glossary On
Versions: 1 2 3 4 5 6 7 8 9 10 11 12 13 14 15 16 17 18 19 20 21 22 23 24 25 26 27 28 29 30 31 32 33 34 35 36 37 38 39 40 41 42 43 44 45 46 47 48 49 50
000
ASUS41 KCLE 282100
RWRCLE
OHIO REGIONAL WEATHER ROUNDUP
NATIONAL WEATHER SERVICE WILMINGTON, OH
500 PM EDT SAT MAR 28 2015

NOTE: "FAIR" INDICATES FEW OR NO CLOUDS BELOW 12,000 FEET WITH NO
SIGNIFICANT WEATHER AND/OR OBSTRUCTIONS TO VISIBILITY.

OHZ001>008-015>018-024>027-034-035-043-044-282200-
   NORTHWEST OHIO

CITY           SKY/WX    TMP DP  RH WIND       PRES   REMARKS
DEFIANCE       SUNNY     35  12  38 W6        30.27F
FINDLAY        MOSUNNY   34  11  38 N7        30.26F WCI  28
TOLEDO EXPRESS SUNNY     34   9  35 NW3       30.26F
TOLEDO EXEC    MOSUNNY   35   8  32 N6        30.27F
LIMA           MOSUNNY   33  14  45 NE8       30.26F WCI  26
$$

OHZ009>014-019>023-028>033-038-089-282200-
   NORTHEAST OHIO

CITY           SKY/WX    TMP DP  RH WIND       PRES   REMARKS
CLE-HOPKINS    MOSUNNY   27  12  53 N14G22    30.29S WCI  16
CLE-LAKEFRONT  PTSUNNY   27  12  53 NW12      30.27S WCI  17
CUY CO. ARPT   MOSUNNY   27  10  50 N16       30.25S WCI  14
LORAIN-ELYRIA  MOSUNNY   26  13  57 N12G20    30.28S WCI  16
ASHTABULA      SUNNY     24   8  50 NW13G22   30.23R WCI  12
AKRON-CANTON   MOSUNNY   28   7  41 NW12G22   30.21R WCI  18
WOOSTER        NOT AVBL
MANSFIELD      CLOUDY    25  14  63 NW10      30.24S WCI  15
YOUNGSTOWN     MOSUNNY   26   8  46 N12G22    30.18S WCI  16
$$

OHZ042-051>053-060>062-070>072-077>081-282200-
  SOUTHWEST OHIO

CITY           SKY/WX    TMP DP  RH WIND       PRES   REMARKS
CINC-COVINGTON SUNNY     36  12  37 NW6       30.26S
CINC-LUNKEN    SUNNY     35   9  33 CALM      30.29F
HAMILTON       SUNNY     37  13  37 NW8       30.30S
DAYTON         NOT AVBL
WRIGHT-PAT AFB NOT AVBL
DAYTON GENERAL SUNNY     34  11  38 W6        30.25F WCI  29
WILMINGTON     MOSUNNY   33  12  41 NW10      30.25S WCI  25
$$

OHZ036-037-039>041-045>050-054>059-063>069-073>076-082>088-282200-
  CENTRAL AND SOUTHEAST OHIO

CITY           SKY/WX    TMP DP  RH WIND       PRES   REMARKS
COLUMBUS       MOSUNNY   32  12  43 NW13      30.26S WCI  22
OSU AIRPORT    MOSUNNY   31  11  43 N13       30.26S WCI  21
BOLTON FIELD   MOSUNNY   30  12  47 NW6       30.27S WCI  24
RICKENBACK AFB NOT AVBL
NEWARK         PTSUNNY   31  12  45 NW9       30.24F WCI  23
MARION         PTSUNNY   30  11  45 N9        30.27S WCI  22
LANCASTER      MOSUNNY   32  15  49 N12       30.26S WCI  23
ZANESVILLE     MOSUNNY   30  10  43 NW8G21    30.23R WCI  22
NEW PHILLY     SUNNY     31   9  39 NW12G23   30.22S WCI  22
$$



USA.gov is the U.S. government's official web portal to all federal, state and local government web resources and services.